Regional Weather Roundup
Issued by NWS Newport/Morehead, NC

Current Version | Previous Version | Text Only | Print | Product List | Glossary Off
Versions: 1 2 3 4 5 6 7 8 9 10 11 12 13 14 15 16 17 18 19 20 21 22 23 24 25 26 27 28 29 30 31 32 33 34 35 36 37 38 39 40 41 42 43 44 45 46 47 48 49 50
000 ASUS42 KMHX 252110 RWRMHX WEATHER ROUNDUP FOR EASTERN NORTH CAROLINA NATIONAL WEATHER SERVICE NEWPORT/MOREHEAD CITY NC 500 PM EDT SAT OCT 25 2014 NOTE: "FAIR" INDICATES FEW OR NO CLOUDS BELOW 12,000 FEET WITH NO SIGNIFICANT WEATHER AND/OR OBSTRUCTIONS TO VISIBILITY NCZ015>017-031-032-045>047-102-103-252200- NORTH COAST CITY SKY/WX TMP DP RH WIND PRES REMARKS EDENTON SUNNY 70 47 43 W5 29.87F ELIZABETH CITY SUNNY 70 50 49 S6 29.86F KITTY HAWK CLEAR 66 47 49 CALM 29.86S MANTEO SUNNY 67 47 48 CALM 29.87F $$ NCZ045>047-081-094-103-104-252200- CENTRAL COAST CITY SKY/WX TMP DP RH WIND PRES REMARKS FRISCO SUNNY 67 48 50 W5 29.88S SWANQUARTER N/A 68 N/A N/A SW6 29.85S $$ NCZ095-097-098-100-101-252200- SOUTHERN COAST CITY SKY/WX TMP DP RH WIND PRES REMARKS BEAUFORT SUNNY 68 51 54 SW12 29.89F CEDAR ISLAND N/A 72 N/A N/A SE1 29.91S JACKSONVILLE SUNNY 73 45 36 W6 29.89S PINEY ISLAND CLEAR 72 44 36 SW7 29.89S WILMINGTON SUNNY 71 50 47 S7 29.90S $$ NCZ011>013-027>030-043-044-078>080-089-090>093-098-252200- COASTAL PLAIN CITY SKY/WX TMP DP RH WIND PRES REMARKS AHOSKIE SUNNY 66 45 46 CALM 29.87F CLINTON SUNNY 72 46 39 W5 29.91F ELIZABETHTOWN SUNNY 73 40 30 W7 29.92S GOLDSBORO SUNNY 71 47 41 W7 29.88F GREENVILLE SUNNY 72 45 37 W5 29.91F HAVELOCK SUNNY 72 45 37 W7 29.90S KENANSVILLE SUNNY 71 40 32 W6 29.92S KINSTON NOT AVBL NEW BERN SUNNY 74 46 36 W8 29.90S RICHLANDS SUNNY 72 45 37 W6 29.90F ROCKY MOUNT SUNNY 70 45 40 SW7 29.88F WASHINGTON SUNNY 70 44 38 W5 29.89F WHITEVILLE SUNNY 73 40 31 W3 29.91F $$ AMZ130-135-150-152-154-156-158-170-250-252-270-ANZ085-086-088-633-658-670-252200- MARINE OBSERVATIONS STATION/POSITION TIME TEMP WIND PRES WAVE SWELL AIR SEA DIR/SP/G HT/PER HT/PER (UTC) (F) (DEG/KT/KT) (MB) (FT/S) (FT/S) CHESAPEAKE LIGHT 2000 66 250/ 5/ 6 1011.6 64 E VA BEACH 2100 63 67 270/ 10/ 12 1010.3 3/ 9 2/ 9 DUCK 2100 65 67 190/ 6/ 8 1010.3 2 E DUCK 2100 N/A 3/ 5 10 NE DUCK 2100 67 N/A 3/10 2/11 OREGON INLET 2100 67 65 70/ 1/ 3 1011.4 13E OREGON INLT 2100 69 N/A 3/11 2/11 HATTERAS CG 2100 68 67 230/ 7/ 9 1012.1 DIAMOND BUOY 2100 68 250/ 8/ 12 1012.0 3/10 2/10 17 S OCRACOKE 2000 VRB 2/ 2 1012.5 CAPE LOOKOUT 2000 68 210/ 8/ 9 1012.4 BEAUFORT LAB 2100 68 67 210/ 7/ 10 1011.6 30 SE NEW RIVER 2100 68 75 220/ 6/ 8 1012.4 2/ 9 2/ 9 5 SE WRIGHTSVLE 2100 65 72 210/ 12/ 14 N/A 225 S CAPE HAT 2050 73 77 360/ 12/ 16 1012.2 4/ 9 3/ 9 41 SE CHARLESTON 2100 69 77 320/ 4/ 6 1014.0 3/10 3/10 $$

USA.gov is the U.S. government's official web portal to all federal, state and local government web resources and services.